Time,TemperatureF,DewpointF,PressureIn,WindDirection,WindDirectionDegrees,WindSpeedMPH,WindSpeedGustMPH,Humidity,HourlyPrecipIn,Conditions,Clouds,dailyrainin,SoftwareType,DateUTC
2013-08-17 20:40:00,73.6,63.6,29.98,East,92,2.0,3.0,71,0.00,,,0.00,Wunderground v.1.15,2013-08-18 01:40:00,
2013-08-17 20:50:00,73.3,63.3,29.98,ESE,110,2.0,3.0,71,0.00,,,0.00,Wunderground v.1.15,2013-08-18 01:50:00,
2013-08-17 21:00:00,72.9,62.9,29.98,SE,143,2.0,2.0,71,0.00,,,0.00,Wunderground v.1.15,2013-08-18 02:00:00,
2013-08-17 21:10:00,72.3,63.2,29.99,SE,133,2.0,2.0,73,0.00,,,0.00,Wunderground v.1.15,2013-08-18 02:10:00,
2013-08-17 21:20:00,71.8,62.7,29.99,East,82,2.0,3.0,73,0.00,,,0.00,Wunderground v.1.15,2013-08-18 02:20:00,
2013-08-17 21:30:00,71.4,62.3,29.99,SE,138,1.0,1.0,73,0.00,,,0.00,Wunderground v.1.15,2013-08-18 02:30:00,
2013-08-17 21:40:00,71.0,62.3,30.00,SE,143,2.0,2.0,74,0.00,,,0.00,Wunderground v.1.15,2013-08-18 02:40:00,
2013-08-17 21:50:00,70.9,62.2,30.00,ESE,123,2.0,2.0,74,0.00,,,0.00,Wunderground v.1.15,2013-08-18 02:50:00,
2013-08-17 22:00:00,70.8,62.1,30.00,East,88,2.0,2.0,74,0.00,,,0.00,Wunderground v.1.15,2013-08-18 03:00:00,
2013-08-17 22:10:00,70.5,62.2,30.00,ENE,69,2.0,2.0,75,0.00,,,0.00,Wunderground v.1.15,2013-08-18 03:10:00,
2013-08-17 22:20:00,70.2,61.9,30.01,ENE,61,2.0,2.0,75,0.00,,,0.00,Wunderground v.1.15,2013-08-18 03:20:00,
2013-08-17 22:30:00,70.0,62.1,30.01,SSW,212,2.0,2.0,76,0.00,,,0.00,Wunderground v.1.15,2013-08-18 03:30:00,
2013-08-17 22:40:00,69.6,61.7,30.01,East,94,2.0,2.0,76,0.00,,,0.00,Wunderground v.1.15,2013-08-18 03:40:00,
2013-08-17 22:50:00,69.1,61.6,30.01,ESE,113,2.0,2.0,77,0.00,,,0.00,Wunderground v.1.15,2013-08-18 03:50:00,
2013-08-17 23:00:00,68.6,61.5,30.01,ESE,122,2.0,3.0,78,0.00,,,0.00,Wunderground v.1.15,2013-08-18 04:00:00,
2013-08-17 23:10:00,68.2,61.1,30.01,SE,126,2.0,2.0,78,0.00,,,0.00,Wunderground v.1.15,2013-08-18 04:10:00,
2013-08-17 23:20:00,67.7,61.3,30.01,SE,134,2.0,2.0,80,0.00,,,0.00,Wunderground v.1.15,2013-08-18 04:20:00,
2013-08-17 23:30:00,67.2,60.8,30.02,SE,143,1.0,2.0,80,0.00,,,0.00,Wunderground v.1.15,2013-08-18 04:30:00,
2013-08-17 23:40:00,66.9,60.9,30.02,SE,135,2.0,2.0,81,0.00,,,0.00,Wunderground v.1.15,2013-08-18 04:40:00,
2013-08-17 23:50:00,66.7,61.0,30.02,East,96,2.0,4.0,82,0.00,,,0.00,Wunderground v.1.15,2013-08-18 04:50:00,